Regional Weather Roundup
Issued by NWS Little Rock, AR

Home | Current Version | Previous Version | Text Only | Print | Product List | Glossary Off
Versions: 1 2 3 4 5 6 7 8 9 10 11 12 13 14 15 16 17 18 19 20 21 22 23 24 25 26 27 28 29 30 31 32 33 34 35 36 37 38 39 40 41 42 43 44 45 46 47 48 49 50

000
ASUS44 KLZK 251305
RWRLZK

WEATHER ROUNDUP FOR ARKANSAS
NATIONAL WEATHER SERVICE LITTLE ROCK AR
800 AM CDT FRI JUL 25 2014

NOTE: "FAIR" INDICATES FEW OR NO CLOUDS BELOW 12,000 FEET WITH NO
SIGNIFICANT WEATHER AND/OR OBSTRUCTIONS TO VISIBILITY.

ARZ001-003-010-029-251400-
NORTHWEST ARKANSAS

CITY           SKY/WX    TMP DP  RH WIND       PRES   REMARKS
FAYETTEVILLE   CLOUDY    73  71  93 S12       30.05R
FORT SMITH     SUNNY     74  71  91 NE7       30.02R
HARRISON       MOSUNNY   68  64  87 S8        30.08R
BENTONVILLE    PTSUNNY   72  68  88 S7        30.05R
ROGERS         PTSUNNY   71  68  90 SE9       30.06R
SILOAM SPGS    CLOUDY    72  64  78 S10       30.06R
HIGHFILL       PTSUNNY   72  71  97 S9        30.04R
SPRINGDALE     CLOUDY    72  70  94 S6        30.07R
$$

ARZ004-005-016-251400-
NORTH CENTRAL ARKANSAS

CITY           SKY/WX    TMP DP  RH WIND       PRES   REMARKS
MTN HOME       PTSUNNY   66  60  81 SE6       30.07R
$$

ARZ040-041-251400-
WEST CENTRAL ARKANSAS

CITY           SKY/WX    TMP DP  RH WIND       PRES   REMARKS
MENA           PTSUNNY   75  72  88 CALM      30.08R
MOUNT IDA      PTSUNNY   73  67  81 CALM      30.04F
$$

ARZ009-017-025-026-028-251400-
NORTHEAST ARKANSAS

CITY           SKY/WX    TMP DP  RH WIND       PRES   REMARKS
CORNING        FAIR      64  64 100 NW3       30.09R
NEWPORT        SUNNY     67  65  93 N7        30.09R
NW BLYTHEVILLE MOSUNNY   68  63  83 CALM      30.06
$$

ARZ022-023-033-042-044-251400-
CENTRAL ARKANSAS

CITY           SKY/WX    TMP DP  RH WIND       PRES   REMARKS
LITTLE ROCK    MOSUNNY   71  64  78 CALM      30.07R
N LITTLE ROCK    N/A     72  63  73 S3        30.07R
JACKSONVILLE   PTSUNNY   68  63  83 CALM      30.07R
SEARCY         SUNNY     67  63  87 NW5       30.09R
HOT SPRINGS    MOSUNNY   72  64  76 CALM      30.07S
RUSSELLVILLE   CLOUDY    71  65  81 CALM      30.06R
CLINTON        PTSUNNY   64  64 100 CALM      30.09R
$$

ARZ036-251400-
EAST ARKANSAS

CITY           SKY/WX    TMP DP  RH WIND       PRES   REMARKS
WEST MEMPHIS   SUNNY     70  65  84 CALM      30.05R
$$

ARZ050-053-066-070-073-251400-
SOUTHWEST ARKANSAS

CITY           SKY/WX    TMP DP  RH WIND       PRES   REMARKS
ARKADELPHIA    FAIR      72  69  90 CALM      30.07R
CAMDEN         CLOUDY    68  64  88 CALM      30.06R
TEXARKANA      PTSUNNY   72  71  97 CALM      30.05S FOG
EL DORADO      PTSUNNY   72  68  87 CALM      30.06R
DE QUEEN       PTSUNNY   73  72  96 CALM      30.03S FOG
$$

ARZ056-057-069-251400-
SOUTHEAST ARKANSAS

CITY           SKY/WX    TMP DP  RH WIND       PRES   REMARKS
PINE BLUFF     SUNNY     68  63  84 CALM      30.08R
STUTTGART      SUNNY     70  64  83 N6        30.08S
MONTICELLO     SUNNY     70  64  81 CALM      30.05R

$$





USA.gov is the U.S. government's official web portal to all federal, state and local government web resources and services.